Regional Weather Roundup
Issued by NWS Sioux Falls, SD

Home | Current Version | Previous Version | Text Only | Print | Product List | Glossary Off
Versions: 1 2 3 4 5 6 7 8 9 10 11 12 13 14 15 16 17 18 19 20 21 22 23 24 25 26 27 28 29 30 31 32 33 34 35 36 37 38 39 40 41 42 43 44 45 46 47 48 49 50

000
ASUS43 KFSD 200610
RWRFSD

WEATHER ROUNDUP FOR SE SOUTH DAKOTA/SW MINNESOTA/NW IOWA
NATIONAL WEATHER SERVICE SIOUX FALLS SD
100 AM CDT FRI OCT 20 2017

NOTE: "FAIR" INDICATES FEW OR NO CLOUDS BELOW 12,000 FEET WITH NO
SIGNIFICANT WEATHER AND OR OBSTRUCTIONS TO VISIBILITY.


SDZ038>040-050-052>070-200700-
SOUTHEAST SOUTH DAKOTA

CITY           SKY/WX    TMP DP  RH WIND       PRES   REMARKS
BROOKINGS      FAIR      58  51  78 S13       29.84F
CHAMBERLAIN    CLEAR     64  49  59 SE8       29.75F
6HR MIN TEMP:  60; 6HR MAX TEMP:  69;

HURON          CLEAR     58  49  72 S12       29.76F
6HR MIN TEMP:  57; 6HR MAX TEMP:  70;

MADISON        FAIR      59  54  82 S12       29.85F
MITCHELL       CLEAR     60  50  69 S14       29.80S
6HR MIN TEMP:  60; 6HR MAX TEMP:  70;

SIOUX FALLS    FAIR      64  52  64 S15       29.86S
6HR MIN TEMP:  63; 6HR MAX TEMP:  70;

WINNER         FAIR      68  46  45 S22G30    29.74F
YANKTON        FAIR      57  50  77 SE5       29.86F
$$

MNZ071-072-080-081-089-090-097-098-200700-
SOUTHWEST MINNESOTA

CITY           SKY/WX    TMP DP  RH WIND       PRES   REMARKS
FAIRMONT       FAIR      55  51  86 S9        29.93F
JACKSON        FAIR      57  50  77 S13       29.92F
LUVERNE        FAIR      52  46  82 S5        29.90S
MARSHALL       FAIR      64  52  64 SW17      29.82S
6HR MIN TEMP:  63; 6HR MAX TEMP:  68;

MONTEVIDEO     FAIR      54  48  82 S6        29.83S
PIPESTONE      FAIR      57  48  72 S7        29.88S
REDWOOD FALLS  FAIR      54  48  80 S6        29.86F
TRACY          FAIR      63  53  70 S16G22    29.86S
WORTHINGTON    FAIR      59  50  72 S10       29.91F
$$

IAZ001>003-012>014-020>022-031-032-NEZ013-014-SDZ071-200700-
NORTHWEST IOWA

CITY           SKY/WX    TMP DP  RH WIND       PRES   REMARKS
CHEROKEE       FAIR      60  52  76 S12       29.94S
DENISON        FAIR      61  50  67 S10       29.98S
ESTHERVILLE    FAIR      52  51  97 S9        29.93F
LE MARS        FAIR      57  52  82 S7        29.91F
ORANGE CITY    FAIR      57  52  82 S8        29.92S
SHELDON        FAIR      61  50  67 S9G16     29.90S
SIOUX CITY     FAIR      52  50  93 SE9       29.92S
6HR MIN TEMP:  52; 6HR MAX TEMP:  69;

SPENCER        FAIR      53  49  86 S7        29.94S
6HR MIN TEMP:  52; 6HR MAX TEMP:  63;

STORM LAKE     FAIR      57  50  77 S14       29.95F
$$

ABBREVIATIONS USED IN REMARKS
   TC - TEMPERATURE IN CELSIUS
  WCI - WIND CHILL INDEX
   HX - HEAT INDEX
  VSB - VISIBILITY





USA.gov is the U.S. government's official web portal to all federal, state and local government web resources and services.